Wind_Speed
12 12 12 11 11 11 11 11 12 12 13 15 14 14 14 14 14 14 14 14 15 15 15 17 18 19 20 19 19 19 20 20 20 17 18 18 15 16 12 9 7 7 8 7 10 11 11 13 14 15 12 9 8 7 11 10 8 7 6 7 7 8 9 9 12 7 7 6 6 4 1 6 9 10 7 9 12 10 10 9 14 17 16 18 19 25 27 24
12 12 12 11 11 11 11 12 13 13 14 15 15 15 14 14 14 15 15 14 15 16 16 17 18 19 20 19 18 17 20 21 20 20 24 21 16 18 16 14 11 8 10 11 13 13 12 11 13 13 10 7 7 8 10 9 8 7 6 7 8 9 10 12 14 7 4 5 5 4 3 7 8 9 8 8 11 11 10 10 12 14 16 18 18 20 21 21
12 12 12 11 12 12 12 13 13 14 15 15 14 15 14 14 14 14 15 15 15 15 16 17 18 19 20 19 17 16 18 21 18 18 21 18 18 22 19 16 14 10 12 15 15 14 13 12 13 12 9 8 8 9 10 8 9 8 7 7 9 11 13 14 13 5 6 8 3 1 3 8 5 4 8 9 12 12 10 9 11 12 14 16 14 15 16 18
12 12 12 12 12 12 13 14 14 15 16 15 15 14 14 14 14 14 14 15 16 16 16 17 18 19 20 19 16 15 16 16 12 6 7 10 16 21 21 19 17 14 14 16 16 14 14 13 12 12 10 9 8 10 11 9 7 7 9 9 10 12 15 14 8 6 2 4 5 4 2 8 5 4 4 9 13 10 10 12 15 16 16 14 11 12 12 14
12 12 12 12 12 12 13 14 16 16 16 16 15 14 14 14 14 14 14 15 16 16 16 17 19 19 20 19 14 13 12 8 1 7 8 10 15 17 20 20 19 18 15 16 17 16 16 15 12 11 9 8 9 10 10 11 8 7 10 12 14 13 13 10 4 7 7 2 2 6 4 5 6 6 4 9 10 2 1 8 17 19 18 14 10 11 11 11
13 13 12 12 12 13 13 14 16 17 17 16 15 14 13 13 13 14 14 14 15 16 16 17 18 19 20 17 13 12 9 3 5 11 9 9 11 11 13 15 18 19 16 15 16 15 15 14 12 10 8 9 11 11 10 12 10 8 10 12 16 17 13 9 5 5 5 1 5 9 5 6 5 6 7 11 4 11 14 15 20 20 19 17 14 12 12 11
13 13 12 13 13 14 14 15 17 17 17 16 15 14 13 13 13 13 14 14 15 15 16 17 18 19 19 17 13 10 10 9 4 5 6 6 9 8 6 6 11 18 16 16 16 14 13 13 13 10 9 10 11 12 11 12 13 11 10 11 15 17 14 11 6 2 1 5 10 10 5 4 8 8 8 13 6 19 19 19 19 18 19 18 15 14 13 11
13 13 12 13 13 14 15 17 17 17 16 15 15 14 13 13 13 13 13 14 15 15 16 16 18 18 17 16 11 8 10 16 15 7 5 5 9 6 4 4 8 15 17 18 18 15 14 14 14 11 10 11 10 13 12 11 13 13 12 12 13 13 14 12 8 4 3 8 11 10 7 6 12 10 9 14 8 18 19 18 15 14 16 15 13 13 11 10
13 13 13 13 14 15 16 17 17 17 16 15 15 14 13 13 13 13 13 14 15 15 16 16 17 16 14 12 9 8 9 18 19 13 7 6 10 8 7 8 11 14 17 19 20 18 14 12 14 13 11 12 12 13 13 11 10 12 14 13 14 13 11 11 12 10 6 7 9 10 10 9 13 10 9 13 9 14 18 19 15 12 13 12 12 10 9 9
13 14 14 14 15 16 17 17 17 17 16 15 15 14 14 13 13 13 13 14 14 15 15 15 16 15 13 11 10 8 9 16 18 15 11 6 10 10 9 12 14 15 17 18 20 19 16 13 14 13 12 12 12 12 13 11 8 11 14 14 16 15 10 9 12 12 9 9 10 11 12 12 12 7 8 10 10 11 16 18 16 13 10 11 11 9 8 8
14 14 14 15 16 17 17 17 17 18 16 15 14 14 14 13 13 14 14 15 15 15 14 14 15 14 14 11 9 8 6 9 8 10 11 8 10 12 11 13 14 16 16 17 19 21 19 17 14 10 9 10 12 13 13 12 11 12 9 9 15 16 13 12 12 11 9 10 12 13 12 14 11 8 12 10 11 10 13 16 17 17 12 11 11 8 6 6
14 14 15 16 15 16 17 17 18 18 17 15 14 14 14 14 14 14 14 15 16 15 13 13 13 12 13 11 11 15 15 10 6 5 8 9 13 15 14 14 16 17 16 16 18 21 22 20 18 13 9 9 11 11 10 11 13 13 7 7 12 14 15 15 13 12 11 11 13 12 10 13 12 12 17 10 13 11 14 15 15 16 11 10 10 7 4 5
15 15 16 16 15 16 17 17 18 18 17 15 14 15 15 15 15 15 15 15 15 15 13 12 12 12 12 8 11 22 27 23 19 13 9 8 11 14 15 16 15 16 17 17 17 20 22 21 20 17 13 11 10 7 6 7 10 13 10 9 10 10 12 15 14 12 13 11 13 12 8 11 13 13 19 12 14 13 14 15 13 14 10 8 9 8 5 5
15 15 16 16 16 17 18 17 18 18 17 16 15 16 16 17 18 18 18 16 15 15 13 12 11 11 10 9 15 25 29 28 25 19 15 13 12 12 14 15 14 14 15 17 18 18 20 22 20 15 13 12 11 9 8 6 7 11 11 9 8 8 9 14 15 13 13 10 12 14 7 9 12 14 20 13 14 14 14 16 15 13 10 8 7 8 8 6
15 16 16 16 16 17 17 17 18 17 16 16 16 17 18 19 20 20 19 16 15 14 13 13 12 11 8 10 17 21 23 27 27 23 19 18 16 13 14 16 16 16 15 16 17 17 18 21 18 12 11 13 13 11 10 8 8 9 9 9 9 9 9 13 18 16 14 11 14 16 8 9 12 14 18 11 13 14 13 15 17 15 12 10 8 8 8 7
15 16 16 16 16 16 16 16 17 16 17 16 17 19 21 22 21 20 18 16 15 14 12 13 13 13 7 8 14 16 18 24 26 25 22 20 19 16 15 16 15 16 17 16 16 15 16 15 13 11 11 12 11 10 9 8 8 8 9 9 10 10 10 11 16 19 17 14 16 16 9 10 11 15 16 13 14 14 11 14 18 18 14 11 8 8 7 8
15 16 16 16 15 15 15 15 15 16 17 16 18 22 23 20 17 16 16 15 14 13 13 13 13 12 10 11 15 15 17 21 24 26 24 21 21 19 17 14 13 15 16 15 15 14 13 11 9 10 10 9 9 9 9 9 8 8 9 9 11 13 11 10 13 19 19 17 16 14 12 14 12 17 17 16 15 15 12 13 18 18 14 11 9 9 8 9
15 15 16 16 16 15 14 15 15 16 16 16 18 22 21 17 13 13 13 12 10 10 13 15 12 7 8 15 17 16 17 20 23 24 23 23 23 21 19 15 11 13 13 12 14 14 11 10 9 9 9 10 10 11 10 10 9 9 10 8 10 12 12 13 11 16 19 19 15 14 15 19 16 16 17 16 16 15 14 11 17 18 13 11 10 10 9 13
15 15 15 16 16 15 15 14 15 15 15 16 18 20 20 15 12 14 13 11 9 7 8 9 12 8 5 10 19 22 19 18 21 22 22 24 22 21 21 16 13 14 13 10 12 14 10 7 9 9 10 12 13 14 13 13 14 13 13 10 10 12 11 15 13 16 19 17 15 15 16 20 20 15 16 15 13 13 11 7 15 14 10 9 8 9 12 15
14 15 15 15 15 15 15 15 14 15 14 15 17 17 13 8 7 8 10 12 11 12 11 10 17 16 14 14 13 22 20 15 19 21 22 24 22 20 18 15 13 13 13 12 12 13 10 9 11 12 13 15 17 18 16 16 18 15 13 12 13 13 10 15 15 17 19 14 14 16 17 19 16 12 16 14 13 12 10 10 16 13 11 10 12 14 14 14
14 16 16 15 16 15 15 15 15 15 13 14 15 12 8 6 5 2 3 11 17 20 20 17 18 18 20 21 14 14 13 9 14 18 21 23 21 18 14 14 14 12 13 15 12 11 11 11 14 16 17 17 18 19 16 17 21 18 13 11 12 12 11 15 14 20 20 13 13 16 17 17 12 11 14 14 14 11 10 10 15 16 14 12 15 16 15 12
14 16 16 16 16 16 15 16 17 17 15 14 14 12 11 13 12 6 3 8 14 21 22 23 22 18 21 26 22 16 9 9 13 15 19 21 20 16 14 15 15 12 15 16 12 11 12 13 16 18 18 17 17 18 18 18 19 16 13 10 9 10 11 13 14 19 19 10 11 16 16 13 13 12 12 12 10 10 10 8 11 12 12 14 15 15 15 14
14 15 17 16 16 17 16 16 17 18 16 15 15 16 16 19 17 12 9 8 11 17 19 21 22 18 21 23 20 16 10 11 14 15 19 20 17 16 15 15 16 14 16 17 14 11 11 12 16 18 17 18 18 18 19 16 14 13 12 10 9 12 11 10 12 15 17 11 10 15 13 9 11 10 10 12 12 11 9 7 8 11 14 16 15 11 12 14
13 15 15 16 16 16 16 17 19 19 19 18 20 21 19 19 18 14 9 8 11 14 17 21 19 16 20 20 15 13 11 12 13 15 21 20 16 15 15 16 17 15 15 20 20 15 13 13 16 18 18 20 19 17 17 13 11 14 14 13 11 13 15 12 9 9 12 11 11 13 10 6 9 10 9 10 10 10 9 8 9 16 20 17 15 11 11 13
13 14 15 16 15 16 18 18 17 18 18 18 20 22 19 16 13 9 8 7 8 12 18 20 15 16 23 21 16 15 12 12 14 14 20 22 18 14 13 12 12 14 18 22 21 15 14 14 17 20 19 20 19 16 17 14 10 12 15 16 15 12 16 15 12 11 8 9 12 13 8 6 9 12 11 8 8 10 10 10 10 16 17 15 13 11 11 13
13 14 14 14 14 17 17 11 11 14 13 15 13 11 10 10 5 4 4 6 6 9 14 16 12 15 21 19 15 15 13 13 15 16 19 23 21 15 12 10 9 14 18 18 14 9 11 16 18 20 20 20 19 15 17 17 11 9 12 16 19 15 17 17 15 14 8 8 12 15 9 6 10 13 14 12 11 13 12 12 12 14 13 13 11 8 9 11
12 13 13 13 13 15 11 8 15 18 9 4 2 3 1 2 3 3 1 5 6 7 14 13 10 16 20 17 17 15 11 10 12 17 17 23 21 16 14 13 9 13 14 11 10 8 12 18 18 19 20 18 16 14 16 17 12 8 10 16 20 18 17 16 14 12 8 7 10 15 13 7 7 12 15 15 14 15 14 12 12 14 13 12 11 9 9 10
12 12 13 13 13 13 12 12 18 15 7 5 7 2 1 2 4 2 3 4 2 5 10 11 11 17 18 17 20 17 10 10 13 15 17 23 23 15 15 17 14 15 15 12 10 10 14 17 17 20 18 14 14 14 15 17 14 10 12 16 17 18 18 16 12 11 8 7 8 14 16 9 6 11 15 17 16 15 15 13 12 16 15 12 10 10 10 11
11 12 12 12 13 15 16 15 16 17 15 13 10 4 3 4 3 1 4 4 2 4 6 8 11 13 15 17 21 18 13 11 12 12 15 21 22 16 12 16 16 17 18 15 12 11 12 14 16 16 14 12 14 16 17 18 14 13 15 14 14 17 17 15 11 9 9 8 9 14 16 10 6 9 11 13 15 14 14 12 13 15 16 14 11 11 11 11
11 11 11 12 12 13 14 16 19 21 17 14 10 4 4 4 2 3 5 4 2 4 6 6 8 12 14 16 17 19 18 14 11 14 14 16 20 18 12 14 16 14 15 16 15 14 14 13 14 12 12 13 15 16 18 18 14 13 16 13 12 14 12 11 9 9 8 7 11 16 18 13 8 7 9 10 11 13 13 12 13 14 15 15 12 12 12 10
11 11 11 11 12 11 10 10 12 14 13 11 8 4 4 3 3 4 6 4 4 4 7 7 10 13 16 17 15 16 19 16 13 17 14 13 17 16 12 13 12 10 12 14 15 17 17 15 12 11 13 14 14 14 16 17 16 14 13 11 10 9 8 9 7 8 7 7 12 17 19 18 10 5 8 11 10 12 15 15 15 15 14 14 12 11 11 10
12 12 12 13 14 13 12 12 11 10 5 5 4 4 3 3 5 6 6 4 3 4 6 8 11 13 16 18 15 16 18 15 14 18 16 12 13 14 14 12 10 10 12 13 14 15 15 14 14 14 14 13 12 10 12 14 15 13 11 9 10 8 6 8 7 8 7 8 13 17 17 16 6 4 2 6 10 13 16 16 16 16 14 12 12 11 10 9
13 13 13 13 15 16 17 17 15 11 6 4 2 3 3 5 7 8 8 6 1 1 4 6 9 13 16 16 14 17 17 15 16 18 18 15 13 15 18 17 15 13 11 12 14 13 12 13 18 18 14 13 12 9 10 11 12 13 12 10 10 9 7 8 8 8 8 10 14 18 16 9 5 7 9 11 16 16 16 16 15 15 14 12 12 11 10 9
14 14 14 14 16 18 18 16 14 9 4 2 2 3 6 7 7 8 10 9 4 1 6 8 8 12 16 14 13 16 15 15 18 17 18 17 13 13 16 19 21 16 11 12 12 12 13 12 16 17 12 13 16 14 11 11 12 13 12 11 11 9 8 7 7 8 9 10 12 15 11 3 6 5 9 14 18 16 16 16 14 14 13 11 11 11 10 9
14 15 15 16 18 19 19 17 13 10 5 4 4 5 8 8 6 6 5 7 6 4 6 8 8 10 13 14 14 17 14 13 18 17 15 15 13 13 15 16 21 19 12 11 8 11 15 12 14 16 13 16 18 16 15 14 12 11 12 12 10 10 9 5 6 7 5 6 9 7 1 4 7 8 10 13 15 16 16 15 15 14 12 11 10 9 8 8
14 14 15 17 18 18 19 17 14 13 9 5 5 7 9 7 5 3 2 5 6 5 6 7 8 8 8 10 12 17 17 14 17 15 12 15 15 16 17 14 19 20 14 10 7 9 13 11 15 19 17 20 20 17 17 14 9 8 11 12 10 13 11 5 6 7 2 4 5 4 5 5 7 7 8 11 13 14 14 14 14 13 12 11 9 7 7 8
12 13 14 17 18 17 18 18 16 15 10 5 7 8 8 9 9 5 2 6 8 6 7 6 8 7 7 9 10 16 18 14 15 13 10 14 14 16 19 17 19 22 17 12 8 8 10 9 15 21 19 20 21 19 19 16 12 9 10 12 11 13 11 5 6 7 4 6 5 8 10 9 7 4 6 12 12 12 13 13 14 13 12 11 8 7 8 8
12 12 13 18 20 17 18 20 19 14 8 6 9 10 9 9 10 5 5 8 11 9 7 6 5 5 5 7 9 14 18 13 13 13 11 10 11 16 20 16 18 23 22 18 9 7 11 8 11 18 17 17 19 18 16 15 17 13 10 11 10 8 9 7 5 6 7 7 6 8 13 10 7 7 11 15 14 14 14 13 13 12 11 9 8 8 9 9
11 8 9 14 17 18 19 22 18 11 6 7 8 8 8 11 11 6 6 12 12 8 6 6 5 4 3 4 8 11 17 15 12 11 11 9 9 17 20 15 17 24 24 21 11 7 10 8 7 16 18 15 14 13 11 12 16 16 12 12 10 6 7 7 6 6 7 7 7 6 8 6 5 9 16 18 17 17 16 13 13 12 11 10 8 8 8 8
8 4 5 7 13 18 21 21 14 8 7 8 8 8 8 10 10 7 10 15 11 5 4 6 5 2 2 5 9 8 11 15 15 11 10 11 10 16 21 17 16 22 24 22 15 8 7 6 5 13 17 14 11 10 13 13 15 14 11 11 11 7 6 8 8 7 7 7 7 5 4 2 2 7 17 19 19 19 17 14 13 12 12 10 8 7 7 7
5 3 3 6 14 20 21 15 9 7 7 8 9 10 11 9 7 7 10 13 10 4 3 5 5 2 3 6 7 7 8 11 15 12 9 12 11 10 16 19 17 19 19 18 14 9 5 4 5 10 14 13 12 14 17 17 16 13 11 11 12 10 8 8 8 8 8 7 6 6 4 3 4 2 14 17 17 17 17 16 14 13 13 10 8 8 9 8
5 3 3 7 16 20 16 9 7 7 7 8 9 11 10 9 8 9 11 11 9 6 4 4 5 4 5 5 5 7 9 9 12 13 9 12 14 10 14 20 20 19 16 13 14 10 4 3 6 8 10 13 16 18 18 20 19 17 14 12 11 11 10 8 7 8 8 7 8 6 3 4 6 4 7 15 16 16 17 16 14 13 13 11 10 10 10 9
5 4 3 5 14 19 12 7 8 8 7 9 11 12 12 11 10 10 10 8 7 6 5 4 5 5 6 5 5 8 10 10 11 13 12 13 15 14 16 20 21 19 15 12 13 11 5 4 6 8 9 12 15 17 18 20 19 16 13 12 12 12 13 11 7 6 6 7 8 5 2 3 5 7 2 9 16 16 15 16 15 14 12 12 12 11 9 8
4 3 2 8 14 16 10 7 9 9 9 10 12 14 14 12 10 10 9 7 7 6 5 5 6 6 6 5 6 10 8 6 10 11 13 11 13 15 18 21 21 17 12 10 9 8 6 6 8 9 8 9 11 12 15 18 16 11 11 13 15 15 18 14 8 5 4 8 11 6 2 3 4 4 2 8 16 15 14 15 14 13 12 12 12 11 9 8
4 2 1 6 11 11 8 7 7 5 7 10 13 14 14 10 10 11 10 8 7 6 5 5 7 7 7 5 6 10 9 5 6 8 8 5 7 13 18 21 21 16 11 13 12 8 7 6 6 8 8 9 10 10 10 13 12 9 13 18 18 17 16 12 7 6 5 9 11 5 6 6 7 9 9 11 15 14 14 14 13 12 12 12 11 10 9 8
2 2 1 2 5 7 7 8 8 5 6 8 8 11 11 9 9 7 5 6 6 8 7 6 7 8 7 7 8 10 10 8 9 9 6 2 3 10 15 18 19 16 13 17 15 8 5 6 8 10 10 9 10 11 12 12 12 12 16 20 19 20 19 12 7 6 8 9 7 6 13 14 13 14 14 12 14 14 14 14 13 12 12 12 11 11 10 9
2 2 1 2 4 6 7 8 9 7 7 7 6 7 10 11 9 3 1 3 3 5 8 7 9 9 7 8 8 7 10 10 11 11 6 2 5 8 14 18 18 15 13 16 16 9 4 8 11 10 11 9 8 12 15 17 17 18 19 20 19 20 19 12 7 7 8 6 3 8 18 19 16 15 14 12 13 13 13 14 13 12 12 12 12 12 11 10
2 2 3 3 3 5 7 8 10 10 9 9 6 8 9 11 10 4 3 3 2 3 5 6 10 12 10 9 6 5 10 10 7 6 5 4 7 9 11 17 17 14 14 14 13 8 4 7 8 6 6 8 9 13 16 19 18 17 17 17 18 20 17 10 5 5 5 5 5 10 16 18 16 13 12 12 11 11 13 14 13 13 13 13 13 13 12 11
2 3 4 5 4 4 5 7 10 11 11 9 7 8 9 10 9 3 1 2 3 5 8 7 9 11 13 13 8 7 10 7 3 4 6 6 8 7 7 12 12 12 15 14 11 7 5 5 7 5 2 5 9 14 13 17 16 14 16 15 14 17 13 4 7 7 12 15 14 13 13 12 11 11 12 11 10 10 11 12 12 13 14 13 13 13 12 11
2 2 3 5 6 6 6 7 8 9 9 8 7 7 9 10 9 5 3 4 4 5 8 10 12 12 12 13 13 11 11 7 3 3 5 5 4 5 5 7 8 10 14 13 10 7 6 4 8 7 2 3 9 12 9 11 13 12 15 15 13 13 9 13 15 13 15 17 18 18 15 8 5 9 12 10 9 11 12 13 13 13 14 14 13 13 12 12
5 4 4 4 5 5 5 5 6 7 7 6 7 7 8 8 6 6 6 7 9 10 9 10 13 12 11 14 15 12 9 3 6 4 6 6 2 4 5 5 8 12 13 11 10 8 6 3 5 7 4 3 9 6 5 3 3 4 0 3 4 3 8 13 11 10 13 17 20 17 12 7 6 9 12 10 11 14 14 14 13 12 13 13 13 13 12 11
6 6 5 4 4 5 5 5 6 7 5 4 6 7 5 5 4 4 5 6 11 14 13 14 14 10 10 13 12 8 3 3 6 3 5 3 2 5 7 8 8 10 11 9 8 7 7 5 3 5 6 3 4 3 5 5 4 7 6 10 10 10 14 13 10 11 13 15 13 9 9 10 11 12 13 13 13 13 12 11 10 10 11 12 12 13 12 11
Wind_Direction
335 334 333 332 333 333 334 334 331 330 327 327 328 324 323 323 323 324 322 318 318 319 318 319 320 319 317 314 315 317 323 316 304 293 263 252 246 245 245 226 246 258 223 228 234 218 202 208 220 223 223 226 225 232 238 230 222 230 221 239 245 236 241 243 254 261 274 258 104 35 246 216 232 179 194 220 226 223 151 119 84 78 77 77 87 111 125 133
332 331 331 330 330 331 331 332 329 326 324 323 324 322 323 322 322 323 322 321 318 317 318 318 319 319 317 314 315 322 325 311 293 280 265 257 247 241 239 234 247 246 212 216 228 219 207 209 212 215 218 223 218 216 232 217 204 232 226 229 237 238 244 240 253 269 332 344 76 38 298 248 242 173 180 202 215 210 159 137 114 96 90 95 98 109 121 131
328 327 327 327 328 329 328 328 324 323 322 317 315 315 317 319 320 318 316 319 319 317 317 317 319 318 318 316 318 327 322 305 288 272 265 256 237 233 233 232 235 230 212 214 226 223 218 219 208 209 217 224 221 210 221 206 190 223 232 231 233 238 251 249 259 280 34 9 5 47 239 238 251 188 178 190 214 206 177 164 143 123 111 112 115 120 129 139
325 323 323 323 323 325 324 324 324 325 323 317 313 311 312 314 317 317 314 316 318 319 317 317 318 317 318 316 317 327 316 296 283 256 237 223 214 220 225 229 228 221 218 223 238 242 234 228 213 210 219 226 224 216 218 206 191 214 223 238 240 232 245 253 275 284 300 4 332 350 251 222 230 227 197 203 212 204 201 187 154 135 125 122 127 136 141 148
323 321 320 319 318 320 320 321 323 323 322 318 314 310 311 311 311 314 313 312 315 316 316 317 317 318 318 314 316 322 305 282 303 108 129 166 184 204 217 224 222 215 218 230 247 251 239 235 226 213 220 235 227 219 220 210 207 225 225 236 251 245 245 259 310 280 261 167 257 292 266 248 242 216 222 229 216 180 285 166 143 127 123 131 138 141 148 163
321 320 318 316 316 317 317 318 320 320 319 317 313 309 308 311 310 311 312 311 313 314 314 315 317 319 316 313 312 300 276 262 82 108 129 150 164 182 200 215 218 212 217 231 243 246 235 232 232 218 215 235 234 228 218 207 211 234 234 229 246 256 262 279 296 262 269 147 226 252 283 349 293 222 237 245 189 77 64 92 117 121 130 141 144 146 158 175
319 319 316 315 315 315 316 316 316 316 315 314 313 310 306 310 310 309 311 311 313 313 312 314 316 318 318 321 308 268 245 264 276 143 155 169 170 164 167 206 209 203 211 226 232 235 231 226 228 225 218 227 237 238 227 211 214 227 242 237 239 251 259 271 286 260 230 253 247 254 292 330 253 232 229 236 143 94 89 96 114 126 136 141 146 154 164 174
317 318 316 314 314 314 315 312 313 313 313 312 310 310 307 311 310 308 310 309 312 311 310 313 314 317 320 325 307 251 229 251 253 220 203 196 185 184 202 207 192 197 207 218 223 226 227 224 225 226 225 227 230 237 234 223 221 224 237 247 245 245 244 246 258 246 198 234 240 254 272 249 239 244 233 226 159 109 110 107 112 124 131 138 147 155 165 170
316 316 315 314 313 314 314 312 313 311 310 309 308 310 309 310 309 309 309 306 308 307 308 310 310 315 313 307 288 264 239 243 245 223 203 184 184 196 222 205 187 196 207 215 221 226 226 222 225 227 232 234 232 236 237 228 224 222 225 240 251 252 243 234 238 233 224 232 223 232 244 239 236 244 256 234 173 127 122 116 118 124 131 138 143 158 171 162
314 313 312 310 310 312 312 312 312 309 308 307 306 307 307 310 308 306 306 305 307 304 305 306 310 314 303 286 260 258 249 245 243 216 197 186 184 186 207 209 193 196 211 216 219 226 227 224 225 229 238 243 242 241 238 233 235 233 224 227 241 252 252 238 240 233 227 234 227 227 228 235 229 211 247 225 164 142 131 126 133 135 140 144 143 160 172 157
312 311 308 307 307 309 311 311 311 308 305 304 303 304 304 305 304 303 303 301 303 303 302 303 308 308 295 283 254 244 237 237 234 210 210 223 215 206 212 215 203 203 213 217 219 224 228 230 230 231 234 240 249 249 245 239 242 248 238 231 237 245 248 237 236 229 224 228 226 231 225 229 217 190 233 201 141 160 148 137 143 143 151 147 140 152 163 153
311 309 307 307 304 307 309 309 310 307 303 302 302 302 301 301 301 301 300 297 298 299 300 299 302 300 287 275 251 240 238 249 277 245 223 226 229 224 223 222 214 211 216 220 221 222 227 231 232 236 231 228 241 248 256 248 246 249 236 240 243 239 242 237 231 218 221 223 209 223 230 225 209 199 233 195 137 178 163 146 144 136 141 138 135 142 146 141
311 310 309 308 305 306 309 308 308 306 301 301 301 300 299 298 295 296 296 294 290 289 292 293 294 289 279 271 253 245 247 264 284 276 249 243 239 227 223 226 224 218 220 226 225 221 225 230 232 238 240 237 237 237 261 258 254 253 235 239 248 239 233 227 231 217 218 218 191 206 228 224 204 195 229 202 149 184 172 154 142 127 132 131 133 135 127 126
311 310 309 309 307 307 309 306 304 303 300 299 299 299 297 294 291 293 294 287 283 284 284 287 284 274 267 262 260 254 252 265 274 265 250 249 246 231 222 222 227 228 227 233 234 227 223 228 233 239 241 245 249 245 248 245 243 245 238 238 240 248 237 213 216 213 214 215 192 203 220 225 197 191 227 206 156 190 178 152 136 127 133 130 141 142 135 139
312 311 310 310 309 308 307 304 302 301 299 299 300 298 293 289 288 290 290 280 276 278 278 278 263 252 267 258 258 260 250 252 259 253 243 239 238 236 222 214 219 226 230 232 234 234 225 222 228 234 237 240 251 254 244 234 232 228 226 231 225 235 249 216 201 202 209 207 206 208 215 231 196 193 221 184 158 196 181 155 140 131 142 152 163 150 139 137
311 311 312 309 307 306 304 302 301 300 300 300 299 296 292 292 291 288 282 272 269 266 266 270 241 226 258 260 253 255 234 232 240 240 237 233 231 231 222 215 216 218 224 225 226 235 231 221 221 228 232 232 237 246 243 231 224 220 218 229 228 221 243 233 191 191 204 205 211 206 215 238 193 193 204 161 168 195 187 176 148 136 151 157 144 138 148 130
310 312 311 309 307 306 303 301 302 302 302 301 298 295 294 294 292 283 273 263 261 253 240 252 245 225 251 274 273 260 226 218 224 224 226 227 226 226 222 218 214 211 214 216 218 226 227 217 212 218 224 228 223 224 235 231 217 216 214 221 235 225 228 238 190 179 198 210 207 195 220 244 203 191 184 160 182 188 194 192 149 144 159 146 133 148 152 121
310 312 310 309 309 306 303 302 303 304 304 301 299 299 297 295 287 276 265 245 237 239 235 247 256 242 243 249 248 241 223 215 215 215 216 217 219 220 221 219 208 204 207 209 211 214 215 208 207 210 210 218 218 215 221 222 217 215 214 212 233 233 223 234 209 170 190 211 202 189 219 242 229 201 169 164 188 185 202 196 143 148 151 136 156 164 135 110
309 311 310 310 308 305 304 304 305 305 305 301 303 307 302 292 273 259 244 215 195 211 223 213 210 217 270 245 222 225 231 214 204 208 209 205 207 212 217 218 205 200 204 200 196 202 204 196 205 210 207 209 212 218 220 223 228 220 215 211 222 234 223 232 223 169 183 206 198 197 216 237 240 210 165 167 188 189 203 163 126 143 133 108 128 134 116 107
308 310 309 309 307 305 303 303 304 304 306 306 307 308 294 262 241 244 224 210 208 222 233 205 194 214 268 283 233 220 230 220 199 200 203 196 192 201 211 211 201 200 206 199 188 193 195 196 207 209 208 208 210 221 224 226 240 237 222 214 219 233 224 231 222 167 176 202 200 207 220 234 234 181 155 170 186 194 199 147 126 137 133 106 99 106 108 106
307 309 308 309 308 305 301 300 299 298 302 301 299 293 274 260 276 307 197 222 227 230 243 241 217 217 248 272 270 226 217 217 202 194 195 190 184 193 201 199 198 200 204 201 191 190 200 208 212 209 210 211 210 219 225 227 241 248 239 221 216 229 227 230 213 161 170 203 202 207 224 228 208 160 165 189 192 194 206 173 138 137 142 130 115 114 110 107
305 308 308 308 305 303 301 296 290 291 294 290 281 267 263 277 287 301 270 253 244 234 241 248 242 237 245 259 273 263 228 202 204 195 188 185 184 190 188 192 201 197 195 200 193 190 206 216 212 208 210 215 213 214 221 227 237 246 248 236 217 226 230 229 211 169 166 200 203 199 223 222 187 174 180 187 196 199 205 190 147 140 144 137 126 122 119 119
303 306 307 306 305 304 299 292 287 283 279 269 263 257 258 266 278 293 282 270 272 250 237 239 241 242 245 248 257 257 235 210 209 198 191 187 188 194 190 191 201 198 192 199 201 195 206 213 210 209 207 213 217 212 214 223 234 240 246 245 224 213 220 225 218 186 167 185 206 195 215 219 171 166 176 181 199 199 182 168 143 103 101 119 121 119 126 126
301 305 305 306 307 302 299 299 289 272 258 250 250 251 258 270 282 298 293 273 275 264 244 235 231 231 238 239 235 231 225 223 220 202 192 190 189 195 200 196 197 202 197 199 206 208 210 204 202 210 207 208 216 213 209 215 228 234 236 249 240 206 211 224 207 180 166 182 214 205 200 198 156 152 176 187 188 172 149 164 149 99 98 120 125 126 133 128
298 304 303 306 306 300 303 303 282 261 245 236 244 248 247 259 280 297 299 281 260 254 241 230 223 221 228 230 224 221 222 224 230 211 188 190 194 190 202 202 196 206 201 200 208 214 214 202 195 207 208 205 212 212 208 210 220 230 228 241 252 218 213 221 176 153 175 190 213 218 197 181 172 170 180 176 163 164 165 180 151 100 102 119 119 125 126 120
297 301 300 303 304 302 305 297 287 290 263 234 247 264 238 233 273 334 297 271 265 246 215 203 205 202 209 219 211 211 224 219 229 223 184 184 200 196 200 203 196 210 204 198 210 217 214 205 196 204 206 203 210 213 207 208 216 228 215 227 249 240 220 216 170 158 200 198 206 221 214 187 175 181 186 174 173 179 175 178 149 104 102 116 116 126 122 116
294 296 297 299 299 303 302 294 309 312 289 228 279 351 54 227 305 5 263 252 260 218 180 177 183 176 184 202 194 199 221 195 211 232 194 178 196 206 205 201 194 209 206 196 207 210 209 208 197 200 206 202 208 214 204 204 215 225 207 216 241 245 233 220 177 167 208 202 208 221 220 213 179 185 186 175 182 182 170 177 157 120 108 106 107 117 119 113
289 292 295 292 290 290 281 289 303 292 277 346 354 332 346 313 302 292 253 255 223 147 153 160 159 163 176 189 187 198 219 176 185 226 207 182 191 206 209 206 201 204 208 205 204 199 201 210 200 194 205 206 204 211 203 201 212 224 213 210 229 242 246 242 203 175 188 195 217 217 213 227 205 185 181 176 185 182 169 166 138 118 113 104 106 115 113 107
286 291 288 288 290 279 267 268 275 271 278 308 315 286 246 281 309 268 251 258 199 131 136 146 152 171 184 181 184 199 211 196 183 198 203 188 193 212 217 211 207 203 211 214 210 200 192 212 216 197 201 211 203 204 208 207 207 223 225 210 219 234 243 257 238 189 178 193 223 216 206 224 224 185 182 183 185 181 170 151 119 115 117 111 113 113 101 95
281 286 284 287 283 273 265 253 254 263 269 282 290 278 254 259 265 220 222 249 258 167 145 151 166 184 190 179 184 196 203 211 191 178 197 192 191 211 221 218 218 208 209 213 215 211 190 200 229 217 203 210 206 202 209 212 201 215 236 222 214 230 238 261 254 206 192 200 222 218 204 213 228 198 182 185 187 179 163 134 118 119 116 111 111 108 102 97
278 280 278 275 262 267 275 252 261 269 255 265 280 261 259 249 228 228 210 231 272 178 152 173 184 186 190 183 182 192 201 214 195 175 192 192 184 202 213 212 220 212 206 209 212 216 202 191 213 228 217 210 208 201 204 210 200 205 238 229 206 218 235 253 237 196 199 204 216 219 205 204 216 212 186 183 179 163 145 131 126 122 113 113 113 108 109 106
274 275 270 263 255 261 261 254 294 319 297 288 269 218 240 222 223 236 214 221 243 181 181 192 186 188 193 187 183 190 198 212 202 179 183 192 183 197 209 203 203 203 204 204 200 209 212 198 197 213 216 209 205 195 199 210 202 204 232 228 205 200 218 239 212 185 204 213 216 219 209 201 196 5 347 153 124 109 117 125 129 124 115 114 113 109 109 108
271 274 267 259 252 250 251 256 283 314 348 354 250 212 232 217 223 227 229 248 254 112 269 241 200 190 189 188 188 190 195 208 207 184 178 194 192 193 208 210 205 203 203 203 198 197 207 204 198 199 197 199 207 200 195 202 197 205 221 218 207 197 198 221 207 192 209 213 215 217 210 188 129 36 27 92 106 101 109 121 126 123 117 115 111 106 103 103
273 272 263 256 249 246 249 257 267 280 311 314 233 225 223 223 233 224 229 251 250 271 285 263 225 196 188 194 196 188 193 208 208 187 176 193 199 190 204 212 208 206 202 203 201 193 200 203 194 193 186 187 208 215 201 193 195 204 215 214 211 204 201 214 210 206 211 214 224 225 217 149 119 93 59 87 103 105 111 118 120 117 115 113 107 102 101 104
277 271 261 256 251 244 243 247 249 250 246 227 234 236 220 219 235 234 242 270 273 275 260 240 228 211 192 195 202 190 190 208 208 195 181 193 203 192 196 208 209 208 201 201 202 194 206 208 184 186 190 189 205 219 207 196 196 203 212 213 210 207 205 203 215 224 223 225 230 226 221 63 97 101 85 90 99 106 113 118 119 116 114 112 105 107 112 109
276 269 256 249 246 239 230 226 224 219 212 214 228 228 225 229 247 257 264 274 288 303 274 230 210 221 201 192 205 195 190 205 209 198 189 196 203 198 195 202 209 208 199 199 204 192 203 207 180 182 194 195 201 216 214 204 196 199 211 209 205 212 212 187 206 226 263 247 216 134 97 102 106 96 100 108 108 113 119 121 120 117 116 114 109 114 117 113
272 267 257 246 241 231 215 205 201 202 204 215 226 230 238 243 249 260 284 272 274 275 271 241 197 211 218 201 202 193 189 202 206 197 193 196 199 198 196 200 208 207 200 199 213 200 203 207 181 184 197 193 193 213 223 215 205 203 204 201 202 213 217 201 198 211 218 233 212 129 131 150 147 138 141 136 131 129 128 125 123 121 118 114 113 121 120 118
275 273 267 253 239 222 202 190 187 191 197 214 231 245 255 251 252 288 337 289 270 249 246 251 208 197 219 223 219 195 186 195 205 197 193 196 196 196 197 198 203 208 202 195 206 211 209 213 179 183 200 191 185 209 222 210 210 214 200 198 209 216 214 208 203 205 203 220 218 147 145 165 171 159 159 158 152 144 137 131 128 125 122 118 123 129 123 120
274 270 273 255 231 212 190 178 180 190 201 215 228 240 249 254 259 277 280 264 265 261 249 254 232 167 129 261 262 216 189 192 206 200 193 197 192 191 198 197 197 208 207 195 199 217 211 222 181 179 198 191 180 207 213 192 203 212 200 198 216 228 217 214 216 213 205 214 217 168 151 174 180 163 167 165 158 152 145 140 136 131 129 130 131 128 122 120
262 253 275 248 206 190 173 168 181 196 203 220 233 238 242 250 250 247 251 252 260 276 262 265 256 186 149 247 264 254 213 200 201 200 196 200 192 185 195 199 192 203 207 196 200 217 206 222 200 181 193 191 179 203 208 190 191 204 206 198 204 217 219 219 220 216 217 215 204 184 169 157 114 167 171 162 155 153 147 142 139 133 132 132 130 128 121 112
249 246 250 190 169 168 164 167 194 204 210 231 241 246 252 259 259 264 268 261 262 272 275 294 292 250 240 251 251 260 256 226 207 202 196 198 204 196 195 201 196 195 200 196 198 208 198 203 201 183 188 193 189 193 205 203 188 190 212 205 195 201 208 213 211 209 224 226 211 202 171 96 26 182 167 154 149 150 147 142 137 132 135 134 128 123 113 106
247 248 228 167 159 162 168 183 204 205 219 233 238 247 255 265 265 265 266 258 251 245 233 264 277 254 242 253 259 254 262 262 225 204 196 203 212 214 203 203 199 190 192 198 193 188 198 216 197 188 190 200 198 190 204 220 205 192 207 214 201 198 207 218 209 203 223 232 230 229 162 85 10 355 154 146 140 144 145 139 132 132 133 131 125 117 111 115
242 250 264 216 179 171 180 202 203 212 229 234 244 250 249 254 254 251 261 264 255 247 240 263 276 267 250 245 271 264 251 267 251 209 193 207 210 211 210 205 201 194 191 199 189 174 193 226 192 191 195 201 201 189 198 223 224 205 200 215 218 200 196 216 219 203 221 231 226 223 155 103 27 11 29 132 124 130 140 135 130 131 130 127 123 115 116 126
264 274 285 253 214 190 193 209 199 208 226 228 237 242 239 244 245 243 253 257 249 248 255 279 283 276 269 256 269 272 256 268 270 221 195 208 207 204 213 206 201 201 189 184 180 163 184 211 188 187 191 191 198 189 190 211 224 215 196 210 231 217 197 206 221 208 217 235 233 223 141 121 96 73 66 111 116 126 135 131 130 130 127 124 121 119 129 135
293 290 298 261 234 209 208 230 225 224 237 237 236 237 237 241 242 242 245 245 259 275 267 275 288 283 280 276 268 266 254 247 264 228 199 227 212 199 213 208 198 201 183 170 178 174 180 200 192 190 191 190 198 195 188 197 206 212 205 203 220 229 212 196 198 200 200 221 230 207 122 117 123 131 129 121 127 133 132 131 131 130 127 125 126 131 135 130
298 269 249 221 218 219 231 251 260 267 269 265 253 243 242 243 243 246 256 262 286 303 288 276 286 284 271 258 255 260 251 240 247 230 195 237 243 198 204 202 194 196 179 169 182 189 179 198 205 206 204 198 202 202 191 192 198 206 210 203 206 222 222 203 190 201 198 207 218 146 131 138 142 146 144 138 138 136 132 133 131 129 130 129 132 134 131 124
271 287 268 169 182 212 229 243 248 246 249 256 266 262 250 243 243 222 154 242 269 299 285 270 259 258 247 235 242 265 264 251 241 229 189 151 271 229 202 197 194 187 168 170 189 194 185 206 202 209 220 215 223 220 198 196 205 203 205 206 203 214 223 215 205 207 196 200 207 135 137 144 152 154 146 136 136 133 132 133 132 132 133 131 133 131 126 120
249 280 285 288 250 211 213 224 228 231 237 237 256 277 263 248 244 207 154 222 253 247 254 254 243 239 239 240 240 252 259 257 239 215 149 146 238 239 199 188 183 167 156 173 194 189 196 215 188 183 224 222 251 252 213 199 207 205 205 210 203 208 222 228 233 226 178 133 143 151 143 143 149 144 127 125 131 129 127 129 131 133 132 132 132 129 124 119
269 275 281 308 306 256 250 245 226 225 234 237 251 269 264 255 251 234 119 296 279 232 225 244 253 242 235 234 232 237 246 251 223 165 134 162 223 243 202 180 168 164 172 182 190 191 211 202 152 134 193 216 258 273 235 200 200 201 208 216 210 205 201 135 71 85 100 106 121 132 127 126 130 118 111 116 118 115 118 123 131 136 136 134 132 128 123 116
266 294 306 325 314 283 283 281 245 226 227 232 246 257 258 262 266 277 279 255 260 246 229 239 248 247 243 233 228 237 243 249 271 212 164 161 209 248 225 188 167 178 191 186 174 190 212 168 139 150 163 235 252 273 266 215 201 202 209 216 224 212 160 96 85 94 101 109 119 117 109 102 92 93 101 104 106 113 123 130 137 140 137 134 130 126 120 114
273 294 299 300 307 294 285 281 251 231 221 218 235 251 258 264 273 288 279 250 248 254 252 253 248 242 245 240 234 237 243 303 350 286 204 165 172 255 250 220 190 186 192 187 170 177 193 146 141 172 176 254 241 250 319 307 139 108 42 315 295 206 119 93 97 111 114 122 127 124 124 130 122 109 108 112 120 125 130 135 138 138 135 133 128 123 120 116
307 313 307 291 296 293 292 287 249 232 229 230 235 241 255 270 270 276 281 260 245 243 246 255 256 249 240 240 247 253 240 43 27 269 215 114 52 283 285 290 256 203 184 182 172 174 179 156 149 181 176 221 231 143 37 9 85 89 37 6 22 71 87 82 91 108 118 129 134 139 142 138 134 129 126 129 131 130 131 135 135 134 132 127 124 122 120 116
Height
814 813 812 811 810 810 809 808 807 806 805 804 803 803 802 801 800 799 798 797 796 794 793 792 790 789 787 786 784 782 780 778 776 775 771 766 767 767 767 768 768 769 770 770 770 770 769 770 769 767 767 766 765 763 760 755 754 759 768 777 776 770 762 752 744 735 733 731 730 732 727 733 734 726 722 720 722 723 725 728 731 737 738 741 744 744 748 754
814 813 812 811 810 809 808 807 807 806 805 804 803 802 801 800 800 799 798 796 796 794 793 792 790 788 787 785 783 782 780 778 775 770 764 762 765 765 765 767 767 768 768 769 769 767 766 766 765 765 766 765 763 761 760 755 754 762 768 774 772 762 751 739 733 728 731 734 732 734 732 732 730 724 722 729 733 726 731 736 736 745 747 747 750 752 754 756
813 812 811 810 810 809 808 807 806 805 804 803 802 801 801 800 799 798 797 796 795 794 792 791 790 788 786 785 783 782 781 777 772 763 757 758 761 762 764 765 766 767 767 767 766 764 763 762 761 762 764 765 760 758 761 755 755 761 764 771 765 752 744 733 727 726 731 735 735 736 734 732 727 721 722 732 736 730 735 739 741 751 752 752 755 756 758 759
813 812 811 810 809 808 807 806 805 804 803 802 801 801 800 799 798 798 797 796 795 793 792 791 789 787 786 784 783 782 781 777 765 755 753 754 757 759 762 763 764 766 766 766 765 763 761 758 758 759 763 765 759 756 759 754 755 758 760 766 755 745 744 733 726 727 730 735 739 739 736 735 727 721 725 731 737 737 733 731 737 747 750 753 755 756 759 761
812 811 811 810 809 808 807 806 805 804 803 801 801 800 799 799 798 797 796 795 794 793 791 790 789 787 785 783 783 782 783 776 757 750 754 754 756 758 759 761 763 764 765 765 765 762 759 757 755 758 763 764 759 757 757 750 751 757 756 756 748 741 742 732 727 731 730 735 742 743 741 736 726 725 729 730 738 740 729 722 730 740 746 751 752 755 759 761
812 811 810 809 808 807 806 805 804 803 802 801 800 799 798 798 797 796 795 794 793 792 791 790 788 787 785 783 782 783 783 769 752 752 755 754 757 758 759 760 761 763 764 765 764 761 759 756 757 760 763 763 760 757 754 747 748 759 755 749 746 741 740 733 730 733 732 739 747 744 738 734 733 734 730 728 733 735 726 722 732 740 744 747 750 755 760 762
811 810 809 808 807 807 805 805 803 802 801 800 799 798 797 797 796 796 795 794 793 791 791 789 788 786 784 782 780 780 779 763 751 754 755 754 758 757 759 759 759 762 763 764 762 760 758 758 759 759 762 763 761 755 750 746 747 757 756 748 744 741 740 736 733 735 737 744 745 738 736 740 744 739 732 729 728 729 729 729 736 740 742 747 751 756 760 761
810 809 808 808 807 806 805 804 802 801 800 799 798 797 797 796 795 795 794 793 792 791 790 789 788 786 785 784 780 775 770 759 752 754 754 754 756 756 759 758 759 760 761 762 759 758 757 758 759 757 762 761 756 754 748 747 749 752 755 749 742 739 738 736 736 738 741 744 741 738 742 744 740 734 732 729 725 728 731 733 738 743 745 749 753 756 758 760
809 808 807 807 806 805 804 803 802 801 799 798 797 796 796 795 795 794 793 792 791 791 790 789 788 786 786 785 782 774 762 753 752 753 753 754 754 755 757 757 758 759 759 759 757 757 756 757 756 754 758 756 752 751 746 750 753 747 748 748 743 740 735 735 738 738 741 741 739 744 747 743 734 733 736 726 721 726 731 737 741 746 751 752 755 757 758 760
809 807 807 806 805 804 803 802 801 799 798 797 796 796 795 794 794 793 792 792 790 790 789 789 787 786 786 783 781 773 756 749 751 751 752 753 753 754 755 756 757 757 757 757 755 755 753 753 751 748 752 752 749 748 745 748 747 739 741 743 743 741 736 736 739 737 740 740 740 745 748 742 730 736 743 727 718 724 731 741 743 747 756 755 756 758 758 759
808 807 806 805 804 803 802 801 800 799 798 796 796 795 794 793 793 792 791 791 789 789 788 788 787 786 785 782 778 767 751 748 749 749 751 752 753 753 753 754 754 755 755 754 754 752 751 750 746 748 752 752 750 748 743 740 739 736 738 743 743 741 738 737 739 738 740 742 739 741 744 740 733 740 741 724 720 725 732 743 745 749 757 756 757 759 758 760
807 806 805 803 803 802 801 800 799 798 796 795 795 794 793 792 792 791 790 790 789 788 788 788 787 786 784 780 772 760 749 747 749 749 750 750 751 751 751 752 751 752 752 751 751 750 750 748 746 750 751 749 751 752 744 735 736 736 738 749 748 743 743 739 738 738 740 742 736 738 749 746 739 741 733 719 722 727 732 742 746 750 754 754 756 759 760 761
806 805 804 802 801 801 800 799 798 797 795 794 793 792 792 791 790 790 789 789 788 787 787 787 786 786 785 776 764 757 749 747 749 750 750 750 749 749 749 750 749 750 750 749 748 748 749 747 746 748 745 746 750 747 740 735 739 741 740 749 751 750 748 740 736 737 740 739 730 740 761 755 739 736 727 718 723 728 735 742 746 751 753 754 756 759 762 764
805 804 803 802 800 800 799 797 796 795 794 793 792 792 790 789 789 788 788 787 787 787 786 786 786 786 783 771 758 755 751 748 750 749 749 749 748 747 747 748 748 749 749 748 747 746 747 746 745 746 744 745 744 739 740 742 744 746 747 749 752 759 752 736 734 738 741 737 727 742 763 753 736 733 725 717 722 729 735 741 747 751 753 755 756 759 764 765
804 803 802 801 799 799 797 796 795 793 793 791 790 790 788 788 787 786 786 785 785 785 785 785 785 784 779 766 754 750 749 748 747 746 748 748 747 746 745 746 747 748 748 747 747 745 744 744 745 748 747 743 742 746 749 749 746 747 755 758 754 757 751 733 729 736 741 738 729 742 759 749 734 730 722 716 723 728 732 739 746 750 752 755 755 758 764 765
803 802 801 800 798 797 796 795 794 792 791 790 789 788 786 785 784 784 784 783 784 784 785 784 780 781 775 759 749 745 743 743 743 744 746 745 746 745 744 744 744 746 747 745 745 744 741 741 744 747 747 746 749 754 755 755 752 747 754 761 754 752 752 737 727 728 734 737 733 739 752 746 732 726 718 717 725 729 731 735 741 748 751 753 755 759 764 767
802 801 800 798 797 796 794 793 792 791 790 789 788 785 784 783 782 782 782 782 783 782 783 779 775 778 769 752 746 740 735 736 738 740 742 743 744 743 743 742 742 743 743 743 744 743 742 742 745 746 747 750 750 755 764 766 762 753 750 756 750 745 748 741 730 726 729 736 736 737 744 740 728 721 717 720 724 729 732 731 737 746 749 753 758 762 765 770
800 800 798 797 796 794 793 792 791 790 789 788 786 784 781 780 780 780 779 780 781 782 782 776 775 777 759 743 741 734 729 731 733 735 737 740 741 741 741 739 739 741 743 744 744 743 743 742 744 749 750 752 750 753 765 766 758 754 751 753 751 741 740 738 730 726 729 735 737 741 745 737 726 719 718 722 723 728 731 728 735 744 747 753 758 761 766 772
800 798 797 796 794 793 792 791 790 789 788 787 785 782 779 777 778 778 777 777 777 776 772 766 768 762 739 727 730 727 724 725 728 730 732 734 737 739 739 737 737 740 745 747 746 742 743 745 749 754 754 752 750 748 752 751 744 744 742 744 748 742 736 731 722 719 726 735 737 741 743 736 728 720 720 724 724 727 729 729 737 743 747 754 759 763 769 774
798 797 796 795 793 792 791 790 789 788 787 786 784 781 777 773 773 772 771 772 768 762 755 751 752 746 730 722 723 724 722 721 722 725 727 729 733 736 736 735 737 740 743 744 745 741 742 752 754 752 750 746 745 743 741 741 737 734 733 736 739 738 733 723 715 713 720 734 738 735 737 734 725 719 722 726 726 728 730 734 741 745 748 756 762 767 772 776
797 796 795 793 792 791 790 789 788 787 787 786 785 782 774 767 767 767 767 766 759 755 750 744 744 742 733 724 720 720 721 720 719 720 723 725 728 734 734 734 738 742 740 738 741 739 742 752 749 742 742 739 739 739 738 740 738 734 731 731 733 734 729 716 710 711 717 732 737 731 733 731 723 721 724 725 727 730 731 735 742 746 749 756 762 768 773 777
796 795 793 793 791 790 789 788 786 786 786 785 784 780 771 766 765 764 765 762 754 750 749 743 741 739 731 725 722 719 719 722 721 718 720 722 726 731 731 732 738 739 736 735 738 743 746 746 740 736 735 735 735 735 738 739 738 738 732 729 731 730 724 714 707 708 715 730 734 731 734 730 722 723 725 726 729 731 729 730 736 743 748 755 762 766 772 777
794 793 792 791 789 789 787 785 785 784 784 783 780 775 770 766 764 762 761 758 750 743 741 739 738 736 730 725 723 720 720 722 722 718 717 720 723 726 727 730 734 733 733 734 736 743 747 740 733 731 730 733 735 733 736 739 738 738 734 731 729 723 725 724 712 706 712 724 729 729 733 730 724 727 729 730 730 729 728 730 734 743 750 757 764 769 773 776
792 791 791 789 788 787 784 783 782 780 779 778 775 771 767 766 764 762 760 755 748 738 732 729 730 730 725 722 722 722 722 720 718 715 713 717 721 723 724 725 729 731 730 729 730 734 737 730 726 727 727 730 734 732 734 740 742 737 732 730 723 715 720 722 713 708 713 722 725 727 739 740 734 739 740 733 729 730 732 735 739 748 755 760 767 773 775 775
790 790 789 788 787 785 784 783 777 774 774 772 770 765 765 766 763 764 762 758 746 729 723 723 721 721 718 719 721 719 719 718 713 709 707 712 717 720 721 719 724 730 726 725 728 729 726 720 720 725 726 726 731 732 731 737 742 738 731 725 717 712 714 715 714 719 732 741 730 727 753 761 744 743 747 738 736 739 738 739 745 753 758 762 770 775 775 775
789 789 787 787 786 784 783 779 773 771 769 766 765 762 763 764 763 765 766 762 744 717 711 716 714 713 712 714 715 716 721 718 708 703 702 709 712 714 720 718 717 723 720 720 725 724 719 713 715 722 724 725 730 731 727 729 739 740 727 720 718 712 710 712 717 729 744 747 730 724 749 763 752 746 744 741 744 744 741 741 746 756 761 763 772 778 778 777
787 787 786 786 785 784 783 777 772 770 765 763 763 762 764 763 764 766 767 763 737 702 698 708 707 704 704 707 709 716 722 714 707 703 698 706 709 708 717 717 716 718 711 716 727 721 713 712 714 718 721 725 729 729 722 722 735 737 721 718 722 715 711 712 719 732 735 733 732 726 733 752 759 750 738 738 745 745 744 745 746 755 764 767 773 780 781 780
786 785 785 784 783 784 782 778 775 769 765 764 763 765 765 764 766 766 769 759 716 684 689 699 699 698 697 701 704 710 711 705 710 707 695 702 707 707 715 713 713 716 706 713 727 718 708 712 713 715 721 724 723 722 717 718 730 728 714 715 720 717 715 712 716 726 727 736 749 735 727 750 757 741 731 735 744 747 747 748 750 758 767 773 777 782 783 782
784 784 783 783 782 781 780 780 776 769 766 765 765 767 764 766 768 767 773 753 700 681 693 695 696 697 694 699 703 705 704 701 706 703 695 701 704 705 712 708 707 713 707 707 717 711 706 709 706 708 719 719 715 715 712 716 723 718 711 713 716 716 716 714 715 719 727 748 758 737 727 749 752 733 730 737 742 746 747 750 758 764 771 778 781 784 786 785
782 782 782 782 781 779 778 777 773 768 767 767 766 766 764 769 769 767 770 743 697 687 694 694 697 695 693 700 705 704 704 700 697 698 699 700 703 705 706 704 703 708 708 706 709 706 701 704 703 704 711 711 709 710 709 711 714 715 716 716 719 718 715 719 716 715 736 757 753 731 724 744 754 738 730 735 737 738 744 756 766 771 776 781 784 786 788 789
780 780 780 781 780 778 776 773 769 767 768 767 766 766 767 769 768 764 751 719 696 693 692 695 696 690 692 699 704 704 704 700 692 696 702 698 702 709 707 706 707 709 713 711 708 703 699 705 708 704 702 702 706 708 707 706 707 716 721 720 727 730 727 731 723 721 749 762 743 726 721 736 755 746 728 727 729 731 744 761 771 777 781 784 787 788 789 791
779 778 778 779 778 777 775 770 767 768 768 767 766 767 769 770 768 759 731 702 703 702 690 691 692 688 692 695 699 702 702 700 691 693 702 701 705 710 708 707 708 715 721 715 710 709 703 703 706 706 701 698 707 713 714 710 708 718 725 726 738 748 751 751 739 737 754 752 732 722 721 733 752 752 736 732 739 743 750 763 771 779 785 788 789 790 791 793
777 776 776 776 776 775 773 770 768 769 769 768 767 768 771 768 756 741 723 709 712 709 694 689 686 685 690 694 697 697 699 700 690 689 698 701 705 709 706 701 698 708 716 712 712 716 714 705 701 705 704 700 707 717 723 719 714 720 726 731 741 750 764 767 751 747 753 744 725 714 720 738 758 764 752 745 753 756 757 767 774 780 786 790 791 792 793 795
774 774 774 774 773 772 771 770 769 769 769 768 770 772 773 765 742 723 719 712 706 706 702 694 687 685 688 692 692 690 697 699 687 686 696 700 705 708 707 700 693 697 703 708 709 712 722 718 701 700 704 704 708 710 713 714 715 718 715 720 730 736 752 763 754 751 753 744 726 716 729 750 766 774 764 755 759 760 766 775 779 784 788 790 792 793 796 798
772 772 772 771 770 769 769 770 769 770 771 769 773 774 767 753 732 718 721 718 709 707 704 694 691 690 688 689 685 681 690 696 685 684 693 698 702 703 703 699 693 691 697 709 708 704 717 714 693 693 699 703 710 704 699 707 717 716 707 714 725 721 728 743 745 740 744 748 737 736 758 767 768 774 768 765 770 770 776 781 782 788 789 790 794 796 798 799
770 769 769 767 765 765 766 768 768 769 770 770 774 771 755 737 725 721 725 724 717 713 708 700 697 698 695 690 686 680 683 688 684 684 690 694 695 695 696 695 690 686 691 705 706 702 714 709 689 694 700 698 705 703 695 703 715 715 712 717 716 708 713 735 745 736 742 757 747 748 777 780 774 781 777 773 779 778 781 784 785 789 791 793 797 798 799 801
768 766 764 762 760 761 762 765 767 768 769 770 771 760 742 729 721 720 722 720 717 715 716 711 701 702 702 694 687 682 682 685 683 684 690 692 690 689 690 689 686 683 685 695 700 695 705 707 690 691 702 696 695 700 696 693 700 710 716 712 707 708 710 724 745 747 754 765 748 746 776 781 776 786 785 779 782 783 784 785 787 791 793 796 798 799 801 801
765 764 760 755 755 756 758 761 764 765 766 769 767 754 738 727 717 716 721 720 715 710 712 713 704 703 707 702 690 679 681 690 686 682 688 692 689 683 683 686 685 682 680 687 697 693 695 708 698 690 699 695 689 702 707 696 691 699 706 702 708 725 726 725 741 751 760 765 751 750 769 769 765 775 780 779 781 783 785 786 790 793 796 799 799 800 800 800
764 763 756 749 749 752 754 758 760 762 765 765 761 749 735 726 717 717 722 720 712 706 708 708 703 705 712 712 702 684 678 686 686 683 687 691 688 679 676 681 682 682 678 679 692 692 689 705 707 694 693 693 693 704 711 706 698 696 701 703 708 720 724 726 729 734 748 756 753 762 771 761 754 759 766 771 773 777 784 786 790 794 796 799 799 799 800 801
763 762 753 743 745 749 751 756 758 760 762 756 748 737 725 720 715 714 718 716 707 703 706 706 702 706 712 711 708 697 685 681 681 683 685 685 685 679 673 675 678 679 676 676 686 689 688 701 710 700 692 698 704 702 700 702 703 704 709 713 715 714 715 721 721 719 731 744 749 766 775 763 752 749 752 760 766 772 779 783 788 792 795 797 798 799 801 802
761 761 752 742 745 747 750 756 757 757 756 747 737 730 721 716 713 713 713 709 703 699 701 705 705 709 714 711 708 705 697 685 676 677 682 681 684 683 673 669 672 673 676 680 685 689 692 700 709 705 699 702 702 694 691 692 695 706 712 710 712 716 719 730 735 723 719 728 732 745 765 768 754 744 746 755 763 769 774 780 786 790 793 797 799 800 802 805
761 757 748 742 744 745 748 753 751 747 745 739 731 725 720 715 713 714 711 705 703 700 698 703 705 707 711 710 707 705 702 694 680 674 681 682 681 680 671 664 666 668 675 684 684 684 689 698 706 708 702 699 693 688 691 690 687 696 704 700 701 709 716 731 742 732 721 723 719 723 753 771 758 746 747 752 759 766 772 778 785 790 794 797 799 801 804 807
756 751 746 744 744 744 747 748 744 740 736 730 725 721 717 714 711 711 708 703 703 701 700 703 703 704 706 704 706 704 701 699 685 674 680 683 677 673 667 662 665 666 672 681 681 683 692 699 708 711 704 695 690 688 691 692 690 693 697 696 697 701 708 715 720 721 724 729 723 728 760 776 765 760 759 755 759 768 774 780 786 791 795 797 800 803 806 809
752 750 749 747 745 745 746 741 735 733 729 725 722 718 713 708 707 707 707 706 704 701 704 707 704 705 703 700 705 704 701 704 694 676 677 682 674 669 665 661 663 665 670 677 679 685 698 702 705 715 718 712 707 704 702 699 695 693 695 696 695 692 697 705 708 714 729 732 722 734 768 778 768 769 769 764 768 775 779 783 787 791 796 799 802 806 808 809
753 752 751 749 746 745 743 734 726 727 726 722 719 714 708 705 702 702 703 704 702 700 704 708 705 704 703 702 707 705 699 706 704 687 683 686 678 669 664 661 662 664 667 673 676 682 696 701 702 715 727 728 723 715 708 702 697 694 693 694 696 692 694 704 713 723 737 733 721 736 768 778 771 770 772 771 775 780 783 786 790 794 798 801 804 808 809 808
756 753 750 749 747 745 742 733 728 731 731 726 720 711 707 706 702 699 701 703 704 704 706 708 707 707 707 707 711 707 698 699 702 692 686 690 683 669 663 662 662 665 669 675 678 681 693 699 698 705 711 713 711 701 691 692 698 700 697 693 696 696 693 699 712 723 728 725 726 741 760 772 775 772 773 775 777 782 787 790 793 797 800 803 806 808 808 807
758 754 748 746 745 744 741 733 729 731 729 726 722 713 708 707 704 703 707 708 709 712 711 709 708 709 709 708 708 708 701 695 695 688 684 691 688 673 665 664 665 668 671 676 679 682 695 701 697 699 699 696 696 691 684 688 694 696 696 694 695 695 692 697 708 711 709 720 742 753 753 763 774 772 773 778 780 784 789 792 796 799 801 804 807 807 807 807
755 754 748 743 739 735 733 728 723 723 722 722 721 716 711 707 705 709 713 712 711 714 715 712 708 706 705 703 705 709 705 698 698 694 691 699 698 681 669 665 666 669 672 677 679 682 695 702 697 700 703 696 694 691 684 685 688 688 691 693 694 694 695 701 706 703 704 724 750 757 752 759 769 772 775 780 782 785 789 792 797 800 802 805 807 807 807 807
754 752 746 741 737 730 726 722 717 717 719 719 719 718 714 710 707 709 714 716 715 713 714 715 710 704 700 698 701 707 704 702 707 704 698 701 699 687 677 673 672 672 672 678 681 681 692 701 699 703 708 703 701 697 686 682 687 690 691 693 693 692 698 708 714 713 717 730 745 753 759 767 771 775 779 781 783 787 790 794 798 801 803 805 806 807 806 808
754 752 746 743 739 732 727 723 718 715 715 717 719 718 713 710 709 710 713 719 721 715 710 712 710 704 699 695 696 699 696 696 704 703 697 698 698 693 685 680 678 677 674 678 682 683 692 701 700 703 713 714 708 701 693 688 692 696 696 696 693 693 704 718 723 725 730 738 747 758 772 782 782 780 783 785 787 790 793 797 800 801 802 803 804 806 807 809
751 749 747 747 742 731 728 728 722 716 713 714 717 716 712 711 712 715 717 716 719 717 711 709 708 703 699 696 692 692 692 693 699 699 693 691 692 691 686 679 677 678 678 678 682 686 693 702 704 706 720 725 713 707 709 705 704 712 719 719 710 705 716 726 726 727 732 741 754 764 775 786 788 785 789 792 792 794 797 799 800 801 802 803 805 807 808 810
750 747 745 747 743 732 729 730 724 716 713 714 714 713 714 715 714 721 725 717 711 712 711 710 708 705 701 699 695 692 691 693 699 701 694 688 689 690 687 682 677 676 678 679 683 687 692 704 711 712 723 730 718 718 730 725 718 729 740 740 730 721 725 731 730 730 732 740 752 760 769 783 789 789 793 796 796 798 799 800 801 802 803 805 807 808 810 813